Regional Weather Roundup
Issued by NWS

Home | Current Version | Previous Version | Text Only | Print | Product List | Glossary Off
Versions: 1 2 3 4 5 6 7 8 9 10 11 12 13 14 15 16 17 18 19 20 21 22 23 24 25 26 27 28 29 30 31 32 33 34 35 36 37 38 39 40 41 42 43 44 45 46 47 48 49

000
ASUS45 KCYS 302310
RWRWY

WYOMING REGIONAL WEATHER ROUNDUP
NATIONAL WEATHER SERVICE CHEYENNE WY
500 PM MDT TUE JUN 30 2015

NOTE:  "FAIR" INDICATES FEW OR NO CLOUDS BELOW 12,000 FEET
WITH NO SIGNIFICANT WEATHER AND/OR OBSTRUCTIONS TO VISIBILITY.

WYZ001-010000-
YELLOWSTONE NATIONAL PARK

CITY           SKY/WX    TMP DP  RH WIND       PRES   REMARKS
LK YELLOWSTONE   N/A     76  43  30 VRB6      30.32F
W YELLOWSTONE  NOT AVBL

$$
WYZ002>013-054>058-071-098>099-010000-
NORTHERN WYOMING

CITY           SKY/WX    TMP DP  RH WIND       PRES   REMARKS
JACKSON        MOSUNNY   79  46  31 W3        30.21S THUNDER
CODY           FAIR      84  54  34 SW3       30.06F
GREYBULL       PTSUNNY   94  43  17 NW9       29.94S HX  90
WORLAND        FAIR      77  63  61 SW8       30.00S
SHERIDAN       FAIR      91  51  25 NW20G25   29.95F
BUFFALO          N/A     82  52  35 NW17G25   30.05F
GILLETTE       FAIR      88  53  30 N16G22    29.97F
HULETT         FAIR      86  55  35 NW7       29.98F
NEWCASTLE      FAIR      88  46  23 NW10G21   29.97F

$$
WYZ014>020-022>026-101>103-010000-
CENTRAL WYOMING

CITY           SKY/WX    TMP DP  RH WIND       PRES   REMARKS
BIG PINEY      FAIR      88  40  18 N20G28    30.23S
PINEDALE       FAIR      86  41  20 W17G29    30.23S
DUBOIS         FAIR      81  39  22 NW21G30   30.22F
LANDER         FAIR      87  50  27 N7        30.07S
RIVERTON       FAIR      85  53  33 NE7       30.08S
CASPER         FAIR      89  45  21 NE10      30.05F
DOUGLAS        FAIR      90  51  26 N12       30.03F

$$
WYZ021-027>030-104>119-010000-
SOUTHERN WYOMING

CITY           SKY/WX    TMP DP  RH WIND       PRES   REMARKS
EVANSTON       FAIR      88  39  17 W14G22    30.24F
KEMMERER       FAIR      86  41  20 NW20G26   30.26S
FORT BRIDGER   PTCLDY    88  43  20 W7        30.26S
ROCK SPRINGS   PTSUNNY   84  46  26 W8        30.19R
DIXON          MOCLDY    90  38  15 CALM      30.14F
RAWLINS        PTSUNNY   81  43  26 NW16      30.20R THUNDER
SARATOGA       FAIR      88  41  19 N14       30.17F
LARAMIE        FAIR      78  49  35 SW17      30.21F
CHEYENNE       PTSUNNY   80  49  33 SW18G24   30.13S
TORRINGTON     FAIR      95  48  20 N14G22    29.93F HX  91
PINE BLUFFS    FAIR      88  50  27 S3        30.04F

$$



USA.gov is the U.S. government's official web portal to all federal, state and local government web resources and services.